Indiana, PA

10:08 AM EDT on September 18, 2019 (GMT -0400)
Indiana County-Stewart

Weather History for KIDI - August, 2019

Change the Weather History Date:

Saturday, August 24, 2019

  Actual Average Record
Temperature  
Mean Temperature 62 °F -  
Max Temperature 71 °F 79 °F 90 °F (1959)
Min Temperature 53 °F 57 °F 38 °F (1951)
Degree Days  
Heating Degree Days 3    
Growing Degree Days 12 (Base 50)    
Moisture  
Dew Point 52 °F    
Average Humidity 73    
Maximum Humidity 100    
Minimum Humidity 41    
Precipitation  
Precipitation 0.00 in - - ()
Sea Level Pressure  
Sea Level Pressure 30.26 in    
Wind  
Wind Speed 2 mph ()    
Max Wind Speed 9 mph    
Max Gust Speed 17 mph    
Visibility 10.0 miles    
Events      
Averages and records for this station are not official NWS values.
T = Trace of Precipitation, MM = Missing Value Source: Averaged Metar Reports

Daily Weather History Graph

Daily Weather History Graph

Search for Another Location

Airport or City:

Astronomy

Aug. 24, 2019 Rise Set
Actual Time 6:35 AM EDT 8:01 PM EDT
Civil Twilight 6:06 AM EDT 8:29 PM EDT
Nautical Twilight 5:32 AM EDT 9:04 PM EDT
Astronomical Twilight 4:55 AM EDT 9:40 PM EDT
Moon 12:26 AM EDT (8/24) 3:16 PM EDT (8/24)
Length of Visible Light 14h 23m
Length of Day
13h 25m
Last Quarter, 39% of the Moon is Illuminated
Aug 24
Last Quarter
Aug 30
New
Sep 5
First Quarter
Sep 14
Full
Sep 21
Last Quarter

Hourly Weather History & Observations

Time (EDT) Temp. Dew Point Humidity Pressure Visibility Wind Dir Wind Speed Gust Speed Precip Events Conditions
12:15 AM 57.2 °F 55.4 °F 94% 30.21 in 10.0 mi Calm Calm - N/A   Clear
12:35 AM 55.4 °F 55.4 °F 100% 30.21 in 10.0 mi Calm Calm - N/A   Clear
12:55 AM 57.2 °F 55.4 °F 94% 30.22 in 10.0 mi Calm Calm - N/A   Scattered Clouds
1:15 AM 57.2 °F 55.4 °F 94% 30.22 in 10.0 mi Calm Calm - N/A   Mostly Cloudy
1:35 AM 55.4 °F 55.4 °F 100% 30.22 in 10.0 mi Calm Calm - N/A   Partly Cloudy
1:55 AM 55.4 °F 55.4 °F 100% 30.22 in 10.0 mi Calm Calm - N/A   Mostly Cloudy
2:15 AM 55.4 °F 55.4 °F 100% 30.22 in 10.0 mi Calm Calm - N/A   Overcast
2:35 AM 55.4 °F 55.4 °F 100% 30.22 in 10.0 mi Calm Calm - N/A   Mostly Cloudy
2:55 AM 55.4 °F 55.4 °F 100% 30.22 in 10.0 mi Calm Calm - N/A   Mostly Cloudy
3:15 AM 55.4 °F 55.4 °F 100% 30.22 in 10.0 mi Calm Calm - N/A   Overcast
3:35 AM 57.2 °F 55.4 °F 94% 30.22 in 10.0 mi Calm Calm - N/A   Overcast
3:55 AM 57.2 °F 55.4 °F 94% 30.23 in 10.0 mi Calm Calm - N/A   Overcast
4:15 AM 55.4 °F 55.4 °F 100% 30.23 in 10.0 mi Calm Calm - N/A   Scattered Clouds
4:35 AM 55.4 °F 55.4 °F 100% 30.23 in 10.0 mi Calm Calm - N/A   Scattered Clouds
4:55 AM 55.4 °F 53.6 °F 94% 30.23 in 10.0 mi Calm Calm - N/A   Scattered Clouds
5:15 AM 55.4 °F 53.6 °F 94% 30.24 in 10.0 mi Calm Calm - N/A   Mostly Cloudy
5:35 AM 55.4 °F 53.6 °F 94% 30.24 in 10.0 mi NE 3.5 mph - N/A   Overcast
5:55 AM 55.4 °F 53.6 °F 94% 30.25 in 10.0 mi Calm Calm - N/A   Overcast
6:15 AM 55.4 °F 53.6 °F 94% 30.26 in 10.0 mi Calm Calm - N/A   Overcast
6:35 AM 55.4 °F 53.6 °F 94% 30.27 in 10.0 mi Calm Calm - N/A   Overcast
6:55 AM 53.6 °F 53.6 °F 100% 30.27 in 10.0 mi ESE 3.5 mph - N/A   Mostly Cloudy
7:15 AM 53.6 °F 53.6 °F 100% 30.28 in 10.0 mi Calm Calm - N/A   Clear
7:35 AM 55.4 °F 53.6 °F 94% 30.28 in 10.0 mi Calm Calm - N/A   Clear
7:55 AM 57.2 °F 53.6 °F 88% 30.29 in 10.0 mi Calm Calm - N/A   Clear
8:15 AM 59.0 °F 53.6 °F 82% 30.30 in 10.0 mi Calm Calm - N/A   Clear
8:35 AM 59.0 °F 53.6 °F 82% 30.30 in 10.0 mi ESE 4.6 mph - N/A   Clear
8:55 AM 60.8 °F 55.4 °F 82% 30.29 in 10.0 mi Calm Calm - N/A   Clear
9:15 AM 62.6 °F 53.6 °F 72% 30.29 in 10.0 mi East 4.6 mph - N/A   Clear
9:35 AM 62.6 °F 53.6 °F 72% 30.30 in 10.0 mi Variable 5.8 mph - N/A   Clear
9:55 AM 64.4 °F 53.6 °F 68% 30.30 in 10.0 mi East 6.9 mph - N/A   Clear
10:15 AM 64.4 °F 51.8 °F 64% 30.29 in 10.0 mi ESE 9.2 mph - N/A   Clear
10:35 AM 66.2 °F 51.8 °F 60% 30.29 in 10.0 mi Variable 6.9 mph - N/A   Clear
10:55 AM 66.2 °F 50.0 °F 56% 30.29 in 10.0 mi Variable 6.9 mph - N/A   Clear
11:15 AM 68.0 °F 48.2 °F 49% 30.29 in 10.0 mi Variable 6.9 mph 13.8 mph N/A   Scattered Clouds
11:35 AM 68.0 °F 48.2 °F 49% 30.30 in 10.0 mi East 9.2 mph - N/A   Mostly Cloudy
11:55 AM 68.0 °F 48.2 °F 49% 30.29 in 10.0 mi East 9.2 mph - N/A   Mostly Cloudy
12:15 PM 69.8 °F 48.2 °F 46% 30.29 in 10.0 mi Variable 6.9 mph 17.3 mph N/A   Mostly Cloudy
12:35 PM 69.8 °F 46.4 °F 43% 30.28 in 10.0 mi NE 8.1 mph 17.3 mph N/A   Mostly Cloudy
12:55 PM 68.0 °F 46.4 °F 46% 30.28 in 10.0 mi Calm Calm - N/A   Mostly Cloudy
1:15 PM 69.8 °F 48.2 °F 46% 30.28 in 10.0 mi NNE 5.8 mph - N/A   Mostly Cloudy
1:35 PM 68.0 °F 46.4 °F 46% 30.27 in 10.0 mi Calm Calm - N/A   Overcast
1:55 PM 68.0 °F 48.2 °F 49% 30.28 in 10.0 mi Variable 3.5 mph - N/A   Overcast
2:15 PM 68.0 °F 48.2 °F 49% 30.28 in 10.0 mi ENE 4.6 mph - N/A   Overcast
2:35 PM 69.8 °F 46.4 °F 43% 30.27 in 10.0 mi Calm Calm - N/A   Mostly Cloudy
2:55 PM 71.6 °F 46.4 °F 41% 30.27 in 10.0 mi Calm Calm - N/A   Mostly Cloudy
3:15 PM 69.8 °F 48.2 °F 46% 30.27 in 10.0 mi Variable 3.5 mph - N/A   Overcast
3:35 PM 69.8 °F 46.4 °F 43% 30.26 in 10.0 mi ESE 5.8 mph - N/A   Mostly Cloudy
3:55 PM 69.8 °F 46.4 °F 43% 30.26 in 10.0 mi East 5.8 mph - N/A   Mostly Cloudy
4:15 PM 69.8 °F 48.2 °F 46% 30.26 in 10.0 mi Variable 4.6 mph - N/A   Mostly Cloudy
4:35 PM 71.6 °F 48.2 °F 43% 30.25 in 10.0 mi NNW 5.8 mph - N/A   Partly Cloudy
4:55 PM 71.6 °F 48.2 °F 43% 30.25 in 10.0 mi NNE 3.5 mph - N/A   Mostly Cloudy
5:15 PM 71.6 °F 48.2 °F 43% 30.25 in 10.0 mi East 8.1 mph - N/A   Overcast
5:35 PM 69.8 °F 50.0 °F 49% 30.25 in 10.0 mi ESE 4.6 mph - N/A   Scattered Clouds
5:55 PM 69.8 °F 50.0 °F 49% 30.25 in 10.0 mi East 4.6 mph - N/A   Mostly Cloudy
6:15 PM 69.8 °F 50.0 °F 49% 30.25 in 10.0 mi Variable 4.6 mph - N/A   Overcast
6:35 PM 69.8 °F 50.0 °F 49% 30.25 in 10.0 mi East 3.5 mph - N/A   Mostly Cloudy
6:55 PM 69.8 °F 50.0 °F 49% 30.25 in 10.0 mi ENE 3.5 mph - N/A   Scattered Clouds
7:15 PM 68.0 °F 51.8 °F 56% 30.26 in 10.0 mi Calm Calm - N/A   Clear
7:35 PM 66.2 °F 51.8 °F 60% 30.26 in 10.0 mi Calm Calm - N/A   Clear
7:55 PM 64.4 °F 53.6 °F 68% 30.26 in 10.0 mi Calm Calm - N/A   Clear
8:15 PM 62.6 °F 51.8 °F 68% 30.27 in 10.0 mi Calm Calm - N/A   Clear
8:35 PM 60.8 °F 51.8 °F 72% 30.27 in 10.0 mi Calm Calm - N/A   Clear
8:55 PM 59.0 °F 53.6 °F 82% 30.28 in 10.0 mi ESE 4.6 mph - N/A   Clear
9:15 PM 59.0 °F 51.8 °F 77% 30.28 in 10.0 mi Calm Calm - N/A   Clear
9:35 PM 59.0 °F 53.6 °F 82% 30.29 in 10.0 mi Calm Calm - N/A   Partly Cloudy
9:55 PM 57.2 °F 53.6 °F 88% 30.30 in 10.0 mi Calm Calm - N/A   Clear
10:15 PM 57.2 °F 53.6 °F 88% 30.30 in 10.0 mi Calm Calm - N/A   Clear
10:35 PM 55.4 °F 51.8 °F 88% 30.30 in 10.0 mi ESE 4.6 mph - N/A   Clear
10:55 PM 57.2 °F 51.8 °F 82% 30.30 in 10.0 mi Calm Calm - N/A   Clear
11:35 PM 55.4 °F 51.8 °F 88% 30.30 in 10.0 mi East 4.6 mph - N/A   Clear
11:55 PM 55.4 °F 51.8 °F 88% 30.30 in 10.0 mi East 3.5 mph - N/A   Clear